星链-34481 (STARLINK-34481)

导读

STARLINK-34481是美国SpaceX公司星链星座的成员卫星,于2025年8月4日发射入轨,属于星链全球卫星互联网项目的扩容卫星。该卫星运行在近地轨道,依托星链低轨星座的激光星间链路与相控阵天线技术,可为全球偏远区域、海洋空域提供高速低延迟的互联网接入服务,同时也可支撑应急通信、手机直连等业务,进一步拓展了星链星座的全球覆盖能力。

基本信息
目录编号:
65104
目录名称:
STARLINK-34481
国际标识:
2025-167AC
轨道中心:
EARTH
卫星名称:
星链-34481
卫星全名:
星链-34481 (STARLINK-34481)
卫星状态:
在轨 (已飞行313 天)
发射日期:
2025-08-04 UTC
国别 :
美国 (US)
星等 :
--
轨道信息
数据来源 国际轨道数据
星历时间: 2026-06-13T14:00:02+0800
13小时前
查看轨道信息
半长轴: 6830.802km
偏心率: 0.0000646
轨道倾角: 53.159°
近地点辐角 80.937°
升交点赤经 297.834°
平近点角 154.177°
近地点: 452.223km
远地点: 453.107km
周期: 93.641分钟
每日圈数: 15.377838
详细信息
固有亮度:
5
最大亮度:
2.5
卫星平台:
Starlink V1.0
覆盖范围:
全球
运营商:
太空探索技术公司
运营商所在国:
美国
制造商(研发单位):
太空探索技术公司
制造商所在国:
美国
使用方式:
暂无
卫星简介
Starlink 计划是 SpaceX 推出的全球卫星互联网项目,通过发射低轨道卫星,为全球尤其是偏远地区提供高速、低延迟的互联网服务。自 2019 年起,Starlink 已部署数千颗卫星,旨在缩小全球数字鸿沟,推动互联网普及。该项目还为军事、航空等行业提供通信支持,带来广泛经济效益。
2D轨道图
3D轨道图
轨道高度分析图
轨道倾角分析图
轨道综合分析图
查看轨道综合分析图